Header for Extended Forecast Station List Page

Search by: ID | Name | Date | Parm | Value | Avg | % Avg
Sort by: ID | Name | Date | Parm | Value | Avg | % Avg

Enter search or view all records.

Click on id for station plot
#IDNameDateParmValueAvg% Avg
0LYDM8KOOTENAI-LIBBY DAM09-29-2014INFLOW (KAF)91098293
1LEOI1KOOTENAI-AT LEONIA09-29-2014DISCHARGE (KAF)27141674162
2BFEI1KOOTENAI-AT BONNERS FERRY09-29-2014STAGE (FT)MMM
3FCFM8NF FLATHEAD-NEAR COLUMBIA FALLS09-29-2014DISCHARGE (KAF)17620287
4WGCM8MF FLATHEAD-NEAR WEST GLACIER09-29-2014DISCHARGE (KAF)11817667
5HHWM8SF FLATHEAD-HUNGRY HORSE DAM09-29-2014INFLOW (KAF)15324363
6CFMM8FLATHEAD-AT COLUMBIA FALLS09-29-2014DISCHARGE (KAF)871120972
7DLGM8CLARK FORK-AT DEER LODGE09-29-2014DISCHARGE (KAF)596393
8DRMM8CLARK FORK-NR DRUMMOND09-29-2014DISCHARGE (KAF)140MM
9RCCM8ROCK CREEK-NEAR CLINTON09-29-2014DISCHARGE (KAF)485294
10BONM8BLACKFOOT-NEAR BONNER09-29-2014DISCHARGE (KAF)12513990
11ABOM8CLARK FORK-ABOVE MISSOULA09-29-2014DISCHARGE (KAF)32635492
12BITM8BITTERROOT-NEAR MISSOULA09-29-2014DISCHARGE (KAF)16623272
13BELM8CLARK FORK-BELOW MISSOULA09-29-2014DISCHARGE (KAF)49159283
14STRM8ST. REGIS-NEAR ST. REGIS09-29-2014DISCHARGE (KAF)233566
15SRGM8CLARK FORK-AT ST REGIS09-29-2014DISCHARGE (KAF)65076685
16KERM8FLATHEAD-KERR DAM09-29-2014INFLOW (KAF)998149567
17NOXM8CLARK FORK-NOXON RAPIDS DAM09-29-2014INFLOW (KAF)2616338677
18CABI1CLARK FORK-CABINET GORGE DAM09-29-2014INFLOW (KAF)2866352381
19PRTI1PRIEST-NEAR PRIEST RIVER09-29-2014DISCHARGE (KAF)22222698
20ALFW1PEND OREILLE-ALBENI FALLS DAM09-29-2014INFLOW (KAF)2971407373
21HOPI1PEND OREILLE-PEND OREILLE LAKE NR HOPE09-29-2014LAKE ELEVATION (FT)MMM
22COEI1COEUR D ALENE-COEUR D ALENE LAKE09-29-2014INFLOW (KAF)27852753
23SPOW1SPOKANE-AT SPOKANE09-29-2014DISCHARGE (KAF)420MM
24LLKW1SPOKANE-AT LONGLAKE09-29-2014INFLOW (KAF)59397361
25SATI1ST MARIES-NEAR SANTA09-29-2014DISCHARGE (KAF)172664
26SJMI1ST JOE-AT ST MARIES09-29-2014STAGE (FT)MMM
27CIBW1COLUMBIA-AT INTL BOUNDARY09-29-2014DISCHARGE (KAF)16711MM
28LAUW1KETTLE-AT LAURIER09-29-2014DISCHARGE (KAF)9412873
29GCDW1COLUMBIA-GRAND COULEE DAM09-29-2014INFLOW (KAF)1749717230102
30CHJW1COLUMBIA-CHIEF JOSEPH DAM09-29-2014INFLOW (KAF)188902020294
31TONW1OKANOGAN-NEAR TONASKET09-29-2014DISCHARGE (KAF)18827968
32PATW1METHOW-NEAR PATEROS09-29-2014DISCHARGE (KAF)9110091
33WELW1COLUMBIA-WELLS DAM09-29-2014INFLOW (KAF)191662055693
34CHDW1CHELAN-LAKE CHELAN DAM09-29-2014INFLOW (KAF)246155158
35RRHW1COLUMBIA-ROCKY REACH DAM09-29-2014INFLOW (KAF)197042107094
36ARDW1ENTIAT-NEAR ARDENVOIR09-29-2014DISCHARGE (KAF)2622120
37PESW1WENATCHEE-AT PESHASTIN09-29-2014DISCHARGE (KAF)336281120
38WANW1COLUMBIA-WANAPUM DAM09-29-2014INFLOW (KAF)2003719089105
39PRWW1COLUMBIA-PRIEST RAPIDS DAM09-29-2014INFLOW (KAF)2003619412103
40KEDW1YAKIMA-KEECHELUS LAKE09-29-2014INFLOW (KAF)464896
41KADW1KACHESS-KACHESS DAM09-29-2014INFLOW (KAF)354088
42EASW1YAKIMA-AT EASTON09-29-2014DISCHARGE (KAF)19562316
43CLUW1CLE ELUM-CLE ELUM LAKE09-29-2014INFLOW (KAF)959699
44TNAW1TEANAWAY-BELOW FORKS09-29-2014DISCHARGE (KAF)203164
45UMTW1YAKIMA-AT UMTANUM09-29-2014DISCHARGE (KAF)366250147
46BUDW1BUMPING-BUMPING LAKE DAM09-29-2014INFLOW (KAF)243275
47CLFW1NACHES-NEAR CLIFFDEL09-29-2014DISCHARGE (KAF)689572
48RILW1TIETON-RIMROCK LAKE NEAR RIMROCK09-29-2014INFLOW (KAF)456372
49NACW1NACHES-NEAR NACHES09-29-2014DISCHARGE (KAF)15169219
50PARW1YAKIMA-NEAR PARKER09-29-2014DISCHARGE (KAF)582385151
51KIOW1YAKIMA-AT KIONA09-29-2014DISCHARGE (KAF)857627137
52IPDI1HENRYS FORK-ISLAND PARK DAM09-29-2014INFLOW (KAF)10012084
53CHEI1FALLS-NEAR CHESTER09-29-2014DISCHARGE (KAF)155109142
54ANTI1HENRYS FORK-AT ST. ANTHONY09-29-2014DISCHARGE (KAF)340335102
55TEAI1TETON-NEAR ST. ANTHONY09-29-2014DISCHARGE (KAF)122112108
56REXI1HENRYS FORK-AT REXBURG09-29-2014DISCHARGE (KAF)464425109
57JLKW4SNAKE-JACKSON LAKE AT DAM09-29-2014INFLOW (KAF)124111112
58JKSW4SNAKE-NEAR JACKSON09-29-2014DISCHARGE (KAF)355329108
59ALPW4SNAKE-NEAR ALPINE09-29-2014DISCHARGE (KAF)463419110
60PLDI1SF SNAKE-PALISADES DAM09-29-2014INFLOW (KAF)748673111
61HEII1SNAKE-NEAR HEISE09-29-2014DISCHARGE (KAF)683669102
62RIDI1WILLOW CREEK-RIRIE DAM09-29-2014INFLOW (KAF)6881
63SIFI1SNAKE-AB EAGLE ROCK NR IDAHO FALLS09-29-2014DISCHARGE (KAF)919825111
64SHYI1SNAKE-NEAR SHELLEY09-29-2014DISCHARGE (KAF)920795116
65SNAI1SNAKE-AT BLACKFOOT09-29-2014DISCHARGE (KAF)801693116
66BFTI1SNAKE-NEAR BLACKFOOT09-29-2014DISCHARGE (KAF)823747110
67PIHI1PORTNEUF-AT POCATELLO09-29-2014DISCHARGE (KAF)445777
68AFRI1SNAKE-AMERICAN FALLS RESERVOIR09-29-2014INFLOW (KAF)14821430104
69MILI1SNAKE-AT MILNER09-29-2014DISCHARGE (KAF)11945726
70HOTI1BRUNEAU-NEAR HOT SPRINGS09-29-2014DISCHARGE (KAF)2625101
71SWAI1SNAKE-BELOW SWAN FALLS09-29-2014DISCHARGE (KAF)1898247877
72HWRI1BIG LOST-AT HOWELL RANCH NEAR CHILLY09-29-2014DISCHARGE (KAF)172374
73MACI1BIG LOST-MACKAY RESERVOIR NEAR MACKAY09-29-2014INFLOW (KAF)297397
74HALI1BIG WOOD-AT HAILEY09-29-2014DISCHARGE (KAF)294270
75MAGI1BIG WOOD-MAGIC DAM09-29-2014INFLOW (KAF)152754
76LWRI1LITTLE WOOD-LITTLE WOOD DAM09-29-2014INFLOW (KAF)71546
77OWYO3OWYHEE-BELOW OWYHEE DAM09-29-2014INFLOW (KAF)406958
78ARAI1SF BOISE-ANDERSON RANCH DAM09-29-2014INFLOW (KAF)717299
79LUCI1BOISE-LUCKY PEAK DAM09-29-2014INFLOW (KAF)107MM
80BIGI1BOISE-AT GLENWOOD BRIDGE09-29-2014DISCHARGE (KAF)6143142
81PARI1BOISE-NEAR PARMA09-29-2014DISCHARGE (KAF)20021494
82WRMO3MALHEUR-WARM SPRINGS DAM09-29-2014INFLOW (KAF)121580
83BERO3MALHEUR-AGENCY VALLEY DAM09-29-2014INFLOW (KAF)1514110
84BULO3BULLY CREEK-BULLY CREEK DAM09-29-2014INFLOW (KAF)1272
85VALO3MALHEUR-NEAR VALE09-29-2014DISCHARGE (KAF)122452
86CSDI1NF PAYETTE-CASCADE DAM09-29-2014INFLOW (KAF)779184
87DEDI1DEADWOOD-NEAR LOWMAN09-29-2014INFLOW (KAF)1919103
88EMMI1PAYETTE-NEAR EMMETT09-29-2014DISCHARGE (KAF)23934569
89WSRI1WEISER-NEAR WEISER09-29-2014DISCHARGE (KAF)386064
90WEII1SNAKE-AT WEISER09-29-2014DISCHARGE (KAF)2674352176
91BRNI1SNAKE-BROWNLEE DAM09-29-2014INFLOW (KAF)2852360379
92WHBI1SALMON-AT WHITEBIRD09-29-2014DISCHARGE (KAF)1011109392
93TRYO3GRANDE RONDE-TROY09-29-2014DISCHARGE (KAF)15625661
94ANAW1SNAKE-NEAR ANATONE09-29-2014DISCHARGE (KAF)3984539774
95ORFI1CLEARWATER-AT OROFINO09-29-2014DISCHARGE (KAF)34659658
96DWRI1NF CLEARWATER-DWORSHAK DAM09-29-2014INFLOW (KAF)28645163
97SPDI1CLEARWATER-AT SPALDING09-29-2014DISCHARGE (KAF)802141857
98LGDW1SNAKE-LOWER GRANITE DAM09-29-2014INFLOW (KAF)4786699368
99LGSW1SNAKE-LITTLE GOOSE DAM09-29-2014INFLOW (KAF)4768704468
100LMNW1SNAKE-LOWER MONUMENTAL DAM09-29-2014INFLOW (KAF)4779708167
101IHDW1SNAKE-ICE HARBOR DAM09-29-2014INFLOW (KAF)4766700968
102TCHW1WALLA WALLA-NEAR TOUCHET09-29-2014DISCHARGE (KAF)738289
103MCDW1COLUMBIA-MCNARY DAM09-29-2014INFLOW (KAF)257042814491
104GIBO3UMATILLA-NEAR GIBBON09-29-2014DISCHARGE (KAF)182667
105PDTO3UMATILLA-AT PENDLETON09-29-2014DISCHARGE (KAF)415674
106MYKO3MCKAY CREEK-NEAR PILOT ROCK09-29-2014DISCHARGE (KAF)101191
107UMAO3UMATILLA-NEAR UMATILLA09-29-2014DISCHARGE (KAF)8057141
108MONO3NF JOHN DAY-AT MONUMENT09-29-2014DISCHARGE (KAF)497565
109SERO3JOHN DAY-AT SERVICE CK09-29-2014DISCHARGE (KAF)9914768
110JDAO3COLUMBIA-JOHN DAY DAM09-29-2014INFLOW (KAF)266492891992
111MODO3DESCHUTES-AT MOODY NR BIGGS09-29-2014DISCHARGE (KAF)1266129997
112TDAO3COLUMBIA-THE DALLES DAM09-29-2014INFLOW (KAF)273543174586
113PITW1KLICKITAT-NEAR PITT09-29-2014DISCHARGE (KAF)19923883
114HODO3HOOD-NEAR TUCKER BRIDGE09-29-2014DISCHARGE (KAF)220192115
115UNDW1WHITE SALMON-NEAR UNDERWOOD09-29-2014DISCHARGE (KAF)216206105
116BONO3COLUMBIA-BONNEVILLE DAM09-29-2014INFLOW (KAF)27978MM